User: anonymous   Login
Location: 東京駅
(35.6813°N, 139.7662°E)
Time: 06:46:54
(UTC+09:00)
Language:

Tiangong 1 - Orbit

View from above orbital plane
View from above orbital plane
View from above satellite
View from above satellite

Ground track
Ground track

The orbit data is extracted from the following two-line orbital elements,

1 37820U 11053A   18055.48165157  .00148339  18311-4  18585-3 0  9992
2 37820  42.7511  70.2230 0015647 103.6951  24.7002 16.06684545368124
Epoch (UTC): 24 February 2018 11:33:34
Eccentricity: 0.0015647
inclination: 42.7511°
perigee height: 245 km
apogee height: 266 km
right ascension of ascending node: 70.2230°
argument of perigee: 103.6951°
revolutions per day: 16.06684545
mean anomaly at epoch: 24.7002°
orbit number at epoch: 36812

The dashed part of the orbit path shows where the satellite is in the earth's shadow,  

DLR